Location: Notre Dame Regional High School Observatory
(37.3056°N, 89.6097°W)
Time: 13:48:24
(UTC-05:00)

Okean-O - Visible Passes

Search period start: 28 March 2015 00:00
Search period end: 07 April 2015 00:00
Orbit: 641 x 643 km, 98.1° (Epoch: 27 March)

Date Brightness Start Highest point End Pass type
(mag) Time Alt. Az. Time Alt. Az. Time Alt. Az.
28 Mar 3.5 04:17:17 10° NNE 04:21:03 48° ENE 04:21:03 48° ENE visible
28 Mar 4.4 05:55:26 10° NW 05:57:47 14° WNW 05:58:42 13° W visible
29 Mar 2.5 04:41:17 10° N 04:45:36 81° NW 04:45:36 81° NW visible
30 Mar 5.3 03:30:33 10° ENE 03:32:31 15° E 03:32:31 15° E visible
30 Mar 2.9 05:05:34 10° N 05:09:49 44° WNW 05:10:09 43° W visible
31 Mar 4.5 03:53:34 10° NE 03:57:03 27° E 03:57:03 27° E visible
31 Mar 3.8 05:30:09 10° NNW 05:33:48 24° WNW 05:34:42 23° W visible
01 Apr 3.3 04:17:13 10° NNE 04:21:33 51° E 04:21:36 51° ESE visible
01 Apr 4.5 05:55:21 10° NW 05:57:43 14° WNW 05:59:14 12° W visible
02 Apr 2.5 04:41:13 10° N 04:45:40 84° WNW 04:46:08 71° SSW visible
03 Apr 5.2 03:30:29 10° ENE 03:32:52 15° E 03:33:02 15° E visible
03 Apr 3.0 05:05:29 10° N 05:09:43 44° WNW 05:10:40 38° WSW visible
04 Apr 4.4 03:53:28 10° NE 03:57:13 27° E 03:57:34 27° ESE visible
04 Apr 3.8 05:30:03 10° NNW 05:33:42 25° WNW 05:35:12 20° W visible
05 Apr 3.3 04:17:07 10° NNE 04:21:26 50° E 04:22:05 46° SE visible
05 Apr 4.5 05:55:13 10° NNW 05:57:37 14° WNW 05:59:43 10° W visible
06 Apr 2.5 04:41:06 10° N 04:45:33 85° WNW 04:46:36 52° SSW visible
